Regional Weather Roundup
Issued by NWS

Home | Current Version | Previous Version | Graphics & Text | Print | Product List | Glossary On
Versions: 1 2 3 4 5 6 7 8 9 10 11 12 13 14 15 16 17 18 19 20 21 22 23 24 25 26 27 28 29 30 31 32 33 34 35 36 37 38 39 40 41 42 43 44 45 46 47 48 49 50
000
ASUS43 KFSD 110602
RWRSD

WEATHER ROUNDUP FOR SOUTH DAKOTA
NATIONAL WEATHER SERVICE SIOUX FALLS SD
1200 AM CST THU FEB 11 2016

NOTE: "FAIR" INDICATES FEW OR NO CLOUDS BELOW 12,000 FEET WITH NO
SIGNIFICANT WEATHER AND/OR OBSTRUCTIONS TO VISIBILITY.


SDZ001>005-009-010-012>017-110700-
NORTHWEST AND NORTH CENTRAL SOUTH DAKOTA

CITY           SKY/WX    TMP DP  RH WIND       PRES   REMARKS
BUFFALO          N/A     32  28  85 SE3       30.05R
FAITH            N/A     28  22  78 SE5       30.14S WCI  23
MOBRIDGE       CLOUDY    20  14  77 E7        30.16F WCI  11
$$

SDZ012>016-024>037-041>051-057-063-072>074-110700-
SOUTHWEST AND SOUTH CENTRAL SOUTH DAKOTA

CITY           SKY/WX    TMP DP  RH WIND       PRES   REMARKS
RAPID CTY ARPT CLOUDY    29  27  92 SE8       30.13F WCI  21
PIERRE         CLOUDY    23  20  88 CALM      30.21R
CUSTER         CLEAR     37  20  50 W14G26    30.08S
ELLSWORTH AFB  CLOUDY    30  29  96 SE7       30.12S WCI  23
PHILIP         CLOUDY    29  24  82 SW5       30.18S WCI  24
PINE RIDGE     CLEAR     28  25  88 CALM      30.13R
WINNER         CLOUDY    27  22  81 NW7       30.18R WCI  19
$$

SDZ004>011-016>023-039-040-110700-
NORTHEAST SOUTH DAKOTA

CITY           SKY/WX    TMP DP  RH WIND       PRES   REMARKS
ABERDEEN       CLOUDY    13   7  77 NE5       30.27S WCI   5
WATERTOWN      CLOUDY    11   4  73 E6        30.21R WCI   1
BROOKINGS      CLOUDY    11   5  77 E6        30.22R WCI   1
SISSETON         N/A      9   4  80 N6        30.27R WCI  -1
$$

SDZ017-020-022-023-036>040-048>070-110700-
SOUTHEAST SOUTH DAKOTA

CITY           SKY/WX    TMP DP  RH WIND       PRES   REMARKS
SIOUX FALLS    CLOUDY    13   5  70 E6        30.24R WCI   4
HURON          CLOUDY    16  10  77 E6        30.25R WCI   7
CHAMBERLAIN    CLOUDY    22  20  89 N6        30.22R WCI  15
MITCHELL       CLOUDY    19  13  77 E6        30.24R WCI  11
YANKTON        CLOUDY    18  10  73 E8        30.22S WCI   7
$$

ABBREVIATIONS USED IN REMARKS
   TC - TEMPERATURE IN CELSIUS
  WCI - WIND CHILL INDEX
   HX - HEAT INDEX
  VSB - VISIBILITY




USA.gov is the U.S. government's official web portal to all federal, state and local government web resources and services.